Total_Precipitation_Accumulation
0.64 0.70 0.68 0.78 0.78 0.87 1.06 1.28 1.33 1.50 1.58 1.58 1.35 1.17 1.09 1.00 0.90 1.09 1.20 1.00 0.84 0.91 1.15 1.31 1.23 1.10 1.00 1.00 1.01 0.96 0.92 0.94 0.87 0.64 0.52 0.48 0.50 0.57 0.55 0.49 0.43 0.38 0.36
1.12 1.22 1.20 1.24 1.12 1.14 1.31 1.55 1.62 1.91 1.83 1.73 1.39 1.29 1.18 1.11 0.97 1.04 1.22 1.22 0.93 0.82 0.92 1.14 1.28 1.21 1.11 1.07 1.05 1.00 0.93 0.93 0.92 0.68 0.50 0.48 0.50 0.55 0.58 0.54 0.45 0.37 0.31
1.47 1.64 1.58 1.50 1.52 1.52 1.63 1.78 1.83 1.89 1.69 1.60 1.44 1.40 1.28 1.12 0.94 0.93 1.02 1.08 0.97 0.81 0.83 0.94 1.11 1.16 1.12 1.14 1.17 1.10 0.94 0.85 0.80 0.68 0.50 0.44 0.46 0.49 0.51 0.53 0.47 0.37 0.26
1.73 1.99 1.85 1.72 1.95 1.83 1.93 2.14 2.08 2.00 1.81 1.75 1.59 1.39 1.27 1.09 0.83 0.83 0.84 0.95 1.04 0.86 0.82 0.89 0.93 0.92 1.04 1.17 1.22 1.22 1.16 1.00 0.79 0.67 0.57 0.56 0.59 0.59 0.57 0.50 0.46 0.37 0.26
1.80 2.08 1.92 1.92 2.02 2.18 2.18 1.99 2.25 2.20 2.02 1.96 1.66 1.34 1.08 0.89 0.74 0.73 0.71 0.69 0.81 0.75 0.66 0.72 0.78 0.83 1.03 1.30 1.34 1.34 1.35 1.28 1.09 0.98 1.02 1.04 1.05 0.96 0.79 0.60 0.47 0.37 0.27
1.92 2.20 2.01 1.92 2.05 2.22 2.14 2.10 2.25 2.26 2.04 2.00 1.59 1.14 0.92 0.71 0.65 0.68 0.63 0.60 0.62 0.57 0.53 0.61 0.82 0.76 0.80 0.98 1.19 1.29 1.38 1.47 1.41 1.60 1.90 1.84 1.74 1.46 1.08 0.80 0.58 0.46 0.36
1.88 2.16 1.95 2.06 2.06 2.05 2.05 2.09 2.29 2.26 2.02 2.07 1.80 1.28 0.88 0.63 0.54 0.56 0.63 0.63 0.56 0.60 0.70 0.80 0.87 0.84 0.83 0.79 0.86 1.00 1.26 1.50 1.49 1.60 1.96 2.21 2.28 1.87 1.30 0.97 0.72 0.54 0.45
1.80 1.96 1.99 1.89 1.93 1.98 1.99 2.03 2.15 1.97 1.74 1.90 1.88 1.70 1.11 0.78 0.60 0.53 0.70 0.73 0.68 0.75 0.79 0.77 0.88 0.97 0.98 1.10 0.98 0.75 0.90 1.24 1.38 1.42 1.55 1.96 2.17 1.82 1.34 1.16 0.93 0.71 0.59
1.71 1.76 1.79 1.79 1.79 1.79 1.80 1.94 1.93 1.83 1.65 1.67 1.82 1.91 1.50 1.05 0.79 0.52 0.50 0.59 0.71 0.75 0.74 0.79 0.75 0.80 0.87 1.10 1.16 1.00 0.78 0.84 1.12 1.38 1.48 1.66 1.82 1.59 1.34 1.25 1.14 0.90 0.75
1.47 1.47 1.46 1.48 1.53 1.57 1.66 1.60 1.62 1.75 1.76 1.63 1.71 1.74 1.65 1.53 1.33 0.82 0.54 0.56 0.70 0.74 0.72 0.69 0.72 0.78 0.80 0.92 1.04 1.11 0.96 0.87 0.95 1.09 1.32 1.47 1.50 1.34 1.25 1.30 1.45 1.30 0.96
1.38 1.32 1.33 1.31 1.30 1.34 1.41 1.45 1.62 1.66 1.71 1.65 1.61 1.62 1.70 1.67 1.51 1.22 0.80 0.70 0.70 0.66 0.71 0.73 0.77 0.88 0.97 1.00 1.08 1.04 1.06 0.93 0.97 0.87 0.87 1.00 1.10 1.17 1.16 1.29 1.65 1.76 1.48
1.17 1.21 1.20 1.19 1.19 1.23 1.33 1.36 1.40 1.43 1.47 1.49 1.45 1.45 1.55 1.51 1.43 1.42 1.12 0.98 0.92 0.79 0.82 0.85 0.86 0.90 0.90 0.98 0.93 1.01 0.96 0.82 0.79 0.79 0.66 0.64 0.72 0.83 0.94 1.17 1.52 1.75 1.80
0.92 0.93 0.99 1.01 1.05 1.13 1.25 1.28 1.23 1.25 1.30 1.33 1.32 1.39 1.48 1.45 1.44 1.54 1.55 1.38 1.24 1.02 1.02 0.99 0.91 0.93 0.86 0.97 0.91 0.79 0.64 0.55 0.48 0.46 0.45 0.48 0.54 0.59 0.67 0.82 1.10 1.38 1.56
0.74 0.74 0.81 0.88 0.96 1.01 1.06 1.20 1.24 1.25 1.28 1.30 1.30 1.47 1.48 1.39 1.41 1.51 1.64 1.74 1.62 1.35 1.30 1.17 0.98 0.87 0.89 0.87 0.74 0.54 0.41 0.34 0.30 0.26 0.27 0.31 0.35 0.39 0.48 0.58 0.72 0.87 1.01
0.88 0.84 0.87 0.92 0.99 1.06 1.12 1.20 1.28 1.29 1.35 1.40 1.48 1.57 1.49 1.39 1.37 1.45 1.69 1.84 1.88 1.66 1.46 1.28 1.13 0.87 0.83 0.73 0.62 0.54 0.47 0.32 0.22 0.19 0.18 0.19 0.22 0.25 0.29 0.36 0.45 0.53 0.61
0.94 0.93 0.94 0.94 0.95 1.00 1.10 1.19 1.30 1.35 1.40 1.48 1.52 1.60 1.63 1.58 1.58 1.61 1.73 1.87 1.94 1.92 1.61 1.36 1.31 1.05 0.91 0.71 0.62 0.53 0.41 0.30 0.21 0.17 0.16 0.15 0.15 0.18 0.22 0.25 0.29 0.34 0.40
0.85 0.82 0.80 0.77 0.79 0.82 0.85 0.92 1.00 1.07 1.15 1.22 1.25 1.36 1.50 1.64 1.65 1.68 1.74 1.78 1.88 1.97 1.69 1.63 1.72 1.53 1.31 1.02 0.79 0.63 0.45 0.38 0.28 0.20 0.17 0.17 0.16 0.17 0.20 0.24 0.26 0.28 0.33
0.62 0.59 0.57 0.57 0.58 0.58 0.60 0.63 0.70 0.84 0.95 1.04 1.11 1.15 1.14 1.21 1.30 1.40 1.50 1.65 1.77 1.93 1.81 1.82 2.01 1.95 1.66 1.29 1.05 0.85 0.59 0.44 0.36 0.28 0.20 0.16 0.18 0.19 0.20 0.23 0.27 0.31 0.32
0.38 0.39 0.45 0.48 0.46 0.48 0.53 0.57 0.64 0.73 0.81 0.86 0.91 0.91 0.84 0.87 0.94 1.05 1.13 1.31 1.51 1.79 1.85 1.93 2.13 2.07 1.79 1.51 1.30 0.99 0.77 0.66 0.47 0.39 0.28 0.19 0.16 0.18 0.22 0.22 0.26 0.34 0.37
0.29 0.30 0.37 0.41 0.42 0.46 0.56 0.68 0.78 0.78 0.77 0.74 0.68 0.64 0.64 0.72 0.78 0.87 0.99 1.04 1.17 1.40 1.57 1.74 1.99 2.03 1.86 1.70 1.53 1.20 0.98 0.85 0.67 0.50 0.46 0.31 0.25 0.21 0.22 0.24 0.27 0.34 0.45
0.24 0.28 0.36 0.42 0.47 0.50 0.50 0.57 0.66 0.67 0.69 0.66 0.58 0.49 0.47 0.54 0.60 0.66 0.74 0.87 0.96 1.14 1.28 1.48 1.74 1.94 1.79 1.63 1.47 1.32 1.16 1.06 0.91 0.72 0.69 0.54 0.43 0.35 0.28 0.26 0.29 0.37 0.53
0.24 0.28 0.34 0.38 0.38 0.34 0.36 0.40 0.47 0.51 0.50 0.52 0.50 0.41 0.35 0.39 0.45 0.52 0.62 0.69 0.78 0.89 1.04 1.29 1.52 1.66 1.55 1.46 1.46 1.43 1.34 1.18 1.11 0.97 0.98 0.95 0.84 0.75 0.57 0.39 0.32 0.33 0.44
0.30 0.35 0.35 0.33 0.32 0.33 0.31 0.29 0.29 0.36 0.39 0.37 0.37 0.39 0.33 0.31 0.36 0.39 0.45 0.48 0.58 0.69 0.80 1.01 1.21 1.36 1.44 1.37 1.46 1.52 1.51 1.46 1.42 1.32 1.34 1.39 1.31 1.25 0.83 0.66 0.58 0.45 0.41
0.42 0.45 0.42 0.37 0.38 0.36 0.29 0.26 0.26 0.27 0.31 0.32 0.30 0.31 0.32 0.33 0.32 0.29 0.34 0.38 0.38 0.43 0.52 0.60 0.77 1.04 1.45 1.59 1.48 1.50 1.57 1.57 1.55 1.52 1.53 1.69 1.55 1.52 1.21 0.84 0.63 0.45 0.39
0.48 0.48 0.47 0.43 0.43 0.40 0.31 0.25 0.24 0.28 0.30 0.30 0.29 0.25 0.24 0.26 0.31 0.29 0.29 0.29 0.31 0.33 0.41 0.51 0.65 0.85 1.07 1.33 1.42 1.40 1.41 1.42 1.58 1.64 1.56 1.67 1.69 1.59 1.62 1.39 0.90 0.56 0.38
0.53 0.49 0.46 0.47 0.47 0.46 0.35 0.23 0.22 0.28 0.31 0.31 0.33 0.28 0.23 0.22 0.24 0.25 0.26 0.24 0.24 0.25 0.29 0.37 0.46 0.61 0.76 0.89 0.92 0.85 0.85 0.90 1.00 1.16 1.17 1.34 1.60 1.64 1.82 1.90 1.52 1.02 0.69